Wind_Speed
20 20 20 20 20 20 20 19 19 18 17 17 17 17 16 16 15 15 15 15 15 15 15 15 14 14 15 14 14 14 14 14 14 14 14 14 13 13 13 13 13 13 13
21 21 21 21 21 21 21 21 21 20 20 19 19 18 18 17 17 17 17 18 18 17 17 17 17 17 17 16 16 16 16 16 15 15 16 16 15 15 15 15 15 15 15
22 22 22 22 22 21 21 21 21 21 21 21 21 20 20 20 19 19 19 19 19 19 19 19 18 18 18 18 19 18 18 18 17 17 17 17 17 17 17 17 17 17 17
23 23 22 22 22 21 21 21 22 22 22 22 22 22 22 21 21 21 21 21 21 21 20 20 20 19 19 20 20 20 19 19 19 19 18 19 19 19 19 18 19 19 19
23 23 23 23 22 22 22 22 22 22 22 23 23 23 23 22 22 22 22 22 22 22 22 22 21 21 21 21 21 21 20 20 21 21 20 21 21 21 20 20 20 20 21
24 23 23 23 23 23 23 23 23 23 23 23 23 23 23 23 23 23 23 24 24 24 24 24 23 23 23 23 23 23 23 23 23 23 23 23 23 23 23 23 23 23 23
24 24 24 24 24 24 24 24 25 25 24 24 24 24 24 24 24 25 25 25 25 25 25 25 25 25 25 25 25 25 25 25 25 25 25 25 25 25 25 25 25 25 25
25 26 26 25 25 25 25 25 25 25 25 25 25 25 25 25 26 26 26 27 27 26 26 26 26 26 26 26 27 27 27 27 27 26 26 26 27 27 27 27 27 27 27
27 26 26 26 26 26 26 26 26 25 25 26 26 26 26 26 26 26 26 27 27 27 27 27 28 28 28 28 28 28 29 29 29 28 28 28 29 29 29 29 29 29 29
28 27 27 27 27 27 27 27 27 27 27 27 27 28 28 28 28 27 27 28 28 28 29 29 29 30 30 30 30 30 31 31 30 31 30 30 31 32 31 31 32 31 31
29 28 28 28 28 29 29 28 28 28 28 28 28 28 28 28 29 29 29 29 29 30 30 31 31 31 32 32 32 33 33 33 33 33 32 33 33 34 34 33 34 34 34
29 29 29 29 29 29 29 29 29 28 28 28 28 28 28 29 29 29 29 30 30 31 32 32 32 33 33 34 35 35 35 36 36 36 35 36 36 36 36 35 36 36 36
29 29 29 29 29 29 29 29 29 29 29 28 28 28 28 29 29 29 29 30 31 31 32 33 34 35 35 36 37 37 38 38 38 38 38 38 38 38 37 38 38 38 38
29 29 29 29 29 28 29 29 28 28 29 29 29 29 29 29 29 30 30 31 32 32 33 35 36 37 38 38 38 39 39 40 40 40 40 40 40 39 40 39 39 40 40
29 29 29 29 28 28 28 28 28 28 29 29 29 29 29 30 30 31 31 32 33 33 34 36 37 38 39 40 41 41 41 41 41 41 41 41 41 41 42 42 41 41 42
29 30 29 29 29 28 28 28 28 28 28 29 29 30 31 31 31 32 33 34 35 35 36 37 39 40 41 42 42 42 42 42 43 43 43 43 43 44 43 44 44 43 44
30 30 30 30 29 29 29 29 29 29 30 30 31 32 32 33 33 34 35 36 37 37 38 39 40 42 42 43 43 43 43 43 44 44 44 44 45 45 46 46 47 47 47
31 30 30 30 30 30 29 29 29 30 31 32 32 33 34 35 36 36 37 37 38 39 40 41 42 43 43 43 43 43 44 44 45 45 46 46 47 48 48 49 49 49 50
31 30 30 30 30 30 30 30 30 31 32 32 33 34 35 36 37 37 38 38 39 40 40 41 42 43 43 44 45 46 46 46 46 47 47 48 49 50 50 50 51 51 51
31 30 30 30 30 30 30 30 31 32 33 33 34 35 36 37 38 38 39 39 40 40 41 41 42 43 44 45 46 47 47 48 48 48 48 49 50 50 51 52 52 52 52
30 30 30 30 30 30 31 31 32 33 33 34 35 36 37 37 38 39 40 40 41 41 42 43 44 44 45 46 47 47 47 48 48 48 49 50 50 51 52 52 53 53 54
31 30 30 30 31 31 32 33 33 34 35 35 36 37 37 38 38 39 40 41 42 43 43 44 45 45 46 46 47 47 47 47 48 48 49 50 51 52 52 53 54 54 56
31 31 31 31 32 32 33 34 34 35 36 36 37 38 38 39 39 40 41 42 42 43 44 45 45 46 46 46 47 48 49 49 49 49 50 51 52 53 53 54 54 55 56
32 32 32 33 33 34 34 34 34 35 36 36 37 38 39 39 40 40 41 42 43 44 45 45 46 46 47 47 48 49 50 51 52 51 51 52 52 53 54 55 56 56 56
33 33 34 34 34 34 35 35 35 36 36 36 37 38 38 39 40 40 41 42 43 44 45 46 46 47 48 48 49 49 50 51 53 54 53 53 53 53 54 55 56 56 55
34 34 34 35 35 35 35 36 36 36 37 37 37 38 38 39 40 41 41 42 43 44 45 46 47 48 48 49 48 48 49 50 52 53 55 54 54 54 55 55 55 55 56
Wind_Direction
249 251 251 252 252 252 252 253 253 253 254 254 255 257 258 258 259 260 260 263 265 266 268 271 271 271 273 272 269 268 270 273 272 268 269 270 271 272 273 273 273 276 278
251 251 252 253 253 253 253 253 253 254 256 257 258 258 258 259 259 260 262 263 265 267 268 269 270 271 273 274 272 271 271 274 274 274 272 270 272 273 273 274 275 276 277
251 252 253 253 253 254 253 254 255 256 257 259 259 259 259 259 259 261 262 264 266 268 268 269 269 271 273 273 274 273 274 272 272 275 275 272 272 273 274 273 274 276 276
251 251 252 252 252 253 253 254 255 257 258 259 260 260 260 261 261 261 262 264 266 267 268 268 269 270 272 272 274 273 273 273 271 274 275 274 273 274 275 276 275 275 276
249 250 251 251 252 253 254 255 256 257 258 259 260 260 261 262 262 262 262 263 265 266 267 268 269 270 271 273 273 273 273 274 273 273 273 273 273 275 276 275 277 278 277
249 250 251 252 252 253 255 256 257 258 259 259 260 261 262 263 263 263 264 264 264 265 267 268 269 269 271 272 273 273 272 273 273 274 273 273 274 274 276 276 277 277 277
250 250 251 252 253 253 255 256 257 258 258 259 260 261 262 263 264 265 266 266 266 266 266 267 268 269 270 272 273 273 274 276 274 275 273 274 274 274 276 277 277 277 277
250 252 252 253 253 254 255 256 258 258 259 260 261 262 263 264 265 266 266 267 267 267 267 267 268 269 270 272 274 274 274 276 276 277 275 275 275 274 276 277 277 276 276
251 252 253 253 254 255 256 257 258 258 260 262 263 263 264 265 266 267 267 267 266 266 266 267 268 270 271 271 273 274 275 276 276 277 275 275 276 276 276 276 276 275 276
251 252 254 254 255 256 257 258 258 260 262 263 264 265 265 266 266 267 267 267 267 267 267 268 269 270 271 272 273 274 274 275 274 275 275 275 275 276 275 276 276 275 275
252 253 254 255 256 257 258 259 260 262 263 264 265 266 266 267 267 268 268 268 269 269 269 270 270 271 271 272 272 273 274 274 274 274 275 275 275 276 275 275 275 275 275
252 253 255 257 257 257 258 259 260 262 263 264 265 266 267 268 268 268 268 269 270 271 271 271 271 271 272 272 272 273 274 274 275 275 275 275 275 276 275 275 275 275 275
253 254 256 257 258 258 258 258 259 261 263 264 265 266 267 268 268 269 270 271 271 272 272 272 273 273 273 273 273 274 274 275 275 275 275 276 275 275 275 276 275 275 276
254 255 256 258 259 259 258 258 260 262 263 264 265 266 267 267 269 270 271 273 273 274 274 274 274 274 274 274 274 274 274 275 275 276 276 276 276 275 275 275 275 275 275
254 255 256 257 257 258 259 260 261 262 263 264 266 267 268 269 270 270 271 273 274 275 275 276 276 276 276 275 275 275 275 275 275 276 276 276 276 275 275 275 275 275 275
254 255 256 256 256 257 259 261 263 263 263 265 267 268 269 270 271 272 273 275 275 276 277 278 278 278 277 277 276 275 275 275 275 276 276 277 277 277 276 276 275 275 275
255 255 255 255 256 258 261 262 263 263 265 266 267 268 270 271 272 273 274 275 277 278 278 279 280 280 279 278 277 276 276 276 276 276 276 277 277 277 277 277 276 276 276
255 255 255 256 257 258 260 262 263 264 266 268 269 270 272 273 274 275 276 277 278 279 280 281 281 281 280 278 277 277 276 276 276 276 277 277 278 278 278 278 277 276 275
255 254 255 257 257 259 261 263 264 266 268 269 270 271 272 273 274 276 277 278 279 281 282 282 282 282 281 279 278 277 277 277 276 277 277 278 278 279 279 279 277 276 275
254 255 257 258 259 260 262 264 266 268 269 270 272 272 273 274 275 276 278 279 280 282 283 284 284 283 282 281 280 279 278 277 277 277 278 278 279 279 279 279 278 276 275
254 256 258 258 259 261 263 265 267 269 271 272 273 274 274 275 276 277 278 280 282 283 283 284 285 285 284 283 282 280 279 278 278 278 279 280 280 280 280 280 278 277 276
255 257 259 259 261 263 265 267 269 270 271 273 274 275 276 276 277 278 279 281 282 284 285 286 286 286 286 285 284 282 280 279 277 278 279 280 280 280 280 281 280 279 277
257 258 260 261 263 266 268 270 271 272 273 273 274 275 276 277 279 280 281 282 283 285 287 287 287 288 287 286 285 284 282 280 279 278 279 280 281 281 281 282 281 281 279
259 260 261 263 266 269 271 272 273 274 274 275 275 277 277 278 280 281 283 284 284 286 288 288 288 288 288 287 287 285 284 283 282 281 281 282 283 283 282 282 282 281 280
260 262 263 265 268 270 272 273 274 275 276 276 277 278 279 280 281 282 283 284 285 287 288 288 288 288 288 288 287 285 284 284 283 282 283 283 283 283 284 284 283 281 280
261 263 265 267 269 270 272 274 275 276 276 277 278 279 280 281 282 282 283 284 285 287 288 288 288 288 289 288 287 286 286 286 286 284 283 283 284 284 285 285 283 282 281
Height
5843 5843 5845 5846 5847 5848 5849 5850 5851 5852 5853 5854 5855 5855 5856 5857 5857 5858 5858 5859 5859 5859 5860 5860 5860 5860 5860 5860 5860 5861 5861 5861 5861 5861 5861 5861 5861 5861 5861 5861 5861 5861 5860
5839 5840 5841 5843 5844 5845 5846 5847 5848 5849 5850 5851 5852 5853 5853 5854 5855 5855 5856 5856 5857 5857 5857 5858 5858 5858 5858 5858 5858 5858 5858 5858 5858 5858 5859 5859 5859 5859 5859 5858 5858 5858 5858
5835 5836 5838 5839 5840 5841 5843 5844 5845 5846 5847 5847 5848 5849 5850 5851 5852 5852 5853 5854 5854 5854 5855 5855 5855 5855 5855 5855 5855 5855 5856 5856 5855 5856 5856 5856 5856 5856 5856 5856 5856 5855 5855
5832 5833 5834 5835 5837 5838 5839 5840 5841 5842 5843 5844 5845 5846 5846 5847 5848 5849 5850 5850 5851 5851 5851 5852 5852 5852 5852 5852 5852 5852 5852 5852 5852 5853 5853 5853 5853 5852 5852 5852 5852 5852 5852
5827 5829 5830 5832 5833 5834 5836 5837 5838 5839 5839 5840 5841 5842 5843 5843 5844 5845 5846 5846 5847 5847 5848 5848 5848 5849 5849 5849 5849 5849 5849 5849 5849 5849 5849 5849 5849 5849 5849 5849 5849 5848 5848
5823 5825 5826 5827 5829 5830 5832 5833 5834 5835 5836 5836 5837 5838 5839 5839 5840 5841 5842 5842 5843 5843 5844 5844 5844 5845 5845 5845 5845 5845 5845 5845 5845 5845 5845 5845 5845 5845 5845 5845 5845 5844 5844
5819 5821 5822 5823 5825 5826 5827 5828 5830 5831 5831 5832 5833 5834 5835 5835 5836 5836 5837 5838 5838 5839 5839 5839 5840 5840 5840 5840 5841 5841 5841 5841 5841 5840 5840 5840 5840 5840 5840 5840 5840 5840 5839
5815 5816 5817 5819 5820 5821 5823 5824 5825 5826 5827 5828 5829 5829 5830 5831 5831 5832 5832 5833 5833 5834 5834 5834 5835 5835 5836 5836 5836 5835 5835 5836 5836 5835 5835 5835 5835 5835 5835 5835 5835 5834 5834
5810 5811 5813 5814 5815 5817 5818 5819 5820 5821 5822 5823 5824 5825 5825 5826 5826 5826 5827 5827 5828 5828 5829 5829 5830 5830 5830 5830 5830 5830 5830 5830 5830 5830 5830 5830 5830 5829 5829 5829 5829 5828 5828
5805 5806 5808 5809 5810 5812 5813 5814 5815 5816 5817 5818 5819 5819 5820 5820 5821 5821 5821 5822 5822 5823 5823 5824 5824 5824 5824 5825 5825 5825 5824 5824 5824 5824 5824 5824 5823 5823 5823 5822 5822 5822 5822
5799 5801 5803 5804 5805 5806 5808 5809 5810 5811 5812 5812 5813 5814 5814 5815 5815 5815 5816 5816 5816 5817 5817 5817 5818 5818 5818 5818 5818 5818 5818 5818 5818 5818 5818 5817 5817 5816 5816 5815 5815 5815 5815
5794 5795 5797 5798 5800 5801 5802 5803 5804 5805 5806 5807 5807 5808 5808 5809 5809 5809 5810 5810 5810 5810 5810 5811 5811 5811 5811 5811 5811 5811 5811 5811 5811 5811 5810 5810 5809 5809 5808 5808 5808 5807 5807
5788 5790 5791 5792 5794 5795 5796 5797 5798 5799 5800 5800 5801 5802 5802 5802 5803 5803 5803 5804 5804 5804 5804 5804 5804 5804 5804 5804 5804 5804 5803 5803 5803 5803 5803 5802 5802 5801 5801 5800 5799 5799 5799
5782 5784 5785 5786 5788 5789 5790 5791 5792 5793 5794 5794 5795 5795 5796 5796 5796 5797 5797 5797 5797 5797 5797 5797 5797 5796 5796 5796 5796 5795 5795 5795 5794 5794 5794 5794 5793 5792 5792 5791 5791 5790 5790
5776 5778 5779 5781 5782 5783 5784 5785 5786 5787 5787 5788 5788 5789 5789 5790 5790 5790 5790 5790 5790 5790 5789 5789 5789 5788 5788 5787 5787 5786 5786 5786 5786 5785 5785 5784 5784 5783 5782 5782 5782 5781 5781
5770 5771 5773 5774 5776 5777 5778 5779 5780 5780 5781 5782 5782 5782 5782 5783 5783 5783 5783 5783 5782 5782 5782 5781 5780 5779 5779 5778 5777 5777 5777 5776 5776 5775 5775 5774 5774 5773 5772 5772 5771 5771 5770
5764 5765 5766 5768 5769 5771 5771 5772 5773 5774 5775 5775 5775 5775 5775 5775 5775 5775 5775 5775 5774 5774 5773 5772 5771 5770 5769 5768 5768 5767 5766 5766 5765 5765 5764 5763 5763 5762 5762 5761 5760 5759 5759
5757 5759 5760 5761 5762 5764 5765 5766 5766 5767 5767 5768 5768 5768 5768 5767 5767 5767 5767 5766 5765 5765 5764 5763 5762 5760 5759 5758 5757 5757 5756 5755 5755 5754 5753 5752 5752 5751 5750 5749 5748 5747 5746
5750 5752 5753 5754 5756 5757 5758 5759 5760 5760 5760 5760 5760 5760 5759 5759 5759 5758 5758 5757 5756 5755 5754 5753 5752 5750 5749 5748 5747 5746 5745 5744 5743 5742 5742 5741 5740 5739 5738 5737 5736 5734 5733
5743 5745 5746 5748 5749 5750 5751 5751 5752 5752 5752 5752 5752 5752 5751 5750 5750 5749 5749 5748 5747 5746 5744 5743 5741 5740 5738 5736 5735 5734 5733 5732 5731 5730 5729 5729 5728 5726 5725 5723 5722 5721 5720
5736 5738 5739 5741 5742 5743 5743 5744 5744 5744 5744 5744 5743 5743 5742 5741 5741 5740 5739 5738 5737 5736 5734 5732 5730 5728 5726 5724 5723 5722 5721 5720 5719 5718 5717 5716 5714 5713 5712 5710 5709 5707 5706
5729 5731 5732 5733 5734 5735 5735 5736 5736 5736 5735 5735 5734 5734 5733 5732 5731 5731 5730 5728 5727 5725 5724 5721 5719 5716 5714 5711 5709 5708 5708 5709 5708 5706 5704 5703 5701 5700 5698 5696 5694 5693 5692
5722 5724 5725 5726 5726 5727 5727 5727 5727 5726 5726 5726 5725 5724 5724 5723 5722 5721 5720 5718 5717 5715 5712 5709 5706 5704 5702 5699 5696 5694 5693 5694 5694 5694 5692 5690 5688 5686 5684 5682 5680 5678 5676
5715 5716 5717 5718 5718 5718 5718 5718 5718 5717 5717 5716 5715 5715 5714 5713 5712 5711 5709 5708 5706 5704 5701 5698 5695 5692 5689 5687 5685 5682 5680 5678 5677 5679 5680 5676 5674 5672 5669 5667 5665 5662 5660
5707 5708 5709 5710 5710 5710 5709 5709 5708 5708 5707 5706 5706 5705 5704 5703 5702 5700 5699 5697 5695 5693 5689 5686 5683 5680 5677 5675 5672 5670 5668 5665 5663 5662 5663 5663 5661 5658 5655 5651 5648 5646 5644
5699 5700 5701 5701 5701 5701 5700 5700 5699 5698 5697 5697 5696 5695 5694 5693 5692 5690 5689 5687 5684 5682 5678 5675 5672 5669 5666 5662 5659 5657 5654 5652 5650 5647 5646 5646 5645 5644 5640 5636 5633 5630 5628